Time,TemperatureF,DewpointF,PressureIn,WindDirection,WindDirectionDegrees,WindSpeedMPH,WindSpeedGustMPH,Humidity,HourlyPrecipIn,Conditions,Clouds,dailyrainin,SoftwareType,DateUTC
2013-10-19 00:01:00,47.8,47.0,30.27,WSW,247,0.0,2.0,100,0.00,,,0.00,Rainwise IP-100,2013-10-19 07:01:00,
2013-10-19 00:06:00,47.8,47.0,30.26,West,270,1.4,3.0,100,0.00,,,0.00,Rainwise IP-100,2013-10-19 07:06:00,
2013-10-19 00:11:00,47.7,47.0,30.26,West,270,0.0,1.0,100,0.00,,,0.00,Rainwise IP-100,2013-10-19 07:11:00,
2013-10-19 00:16:00,47.6,47.0,30.26,West,270,0.0,1.0,100,0.00,,,0.00,Rainwise IP-100,2013-10-19 07:16:00,
2013-10-19 00:21:00,47.5,47.0,30.26,West,270,0.0,0.0,100,0.00,,,0.00,Rainwise IP-100,2013-10-19 07:21:00,
2013-10-19 00:26:00,47.4,47.0,30.26,WSW,247,1.4,1.4,100,0.00,,,0.00,Rainwise IP-100,2013-10-19 07:26:00,
2013-10-19 00:31:00,47.5,47.0,30.26,West,270,1.4,3.0,100,0.00,,,0.00,Rainwise IP-100,2013-10-19 07:31:00,
2013-10-19 00:36:00,47.6,47.0,30.26,West,270,1.9,4.0,100,0.00,,,0.00,Rainwise IP-100,2013-10-19 07:36:00,
2013-10-19 00:41:00,47.6,47.0,30.26,West,270,3.0,4.0,100,0.00,,,0.00,Rainwise IP-100,2013-10-19 07:41:00,
2013-10-19 00:46:00,47.6,47.0,30.27,WSW,247,2.1,4.0,100,0.00,,,0.00,Rainwise IP-100,2013-10-19 07:46:00,
2013-10-19 00:51:00,47.6,47.0,30.27,West,270,0.0,3.0,100,0.00,,,0.00,Rainwise IP-100,2013-10-19 07:51:00,
2013-10-19 00:56:00,47.6,47.0,30.27,WSW,247,1.2,3.0,100,0.00,,,0.00,Rainwise IP-100,2013-10-19 07:56:00,
2013-10-19 01:01:00,47.6,47.0,30.27,WSW,247,1.6,3.0,100,0.00,,,0.00,Rainwise IP-100,2013-10-19 08:01:00,
2013-10-19 01:06:00,47.5,47.0,30.27,West,270,0.0,4.0,100,0.00,,,0.00,Rainwise IP-100,2013-10-19 08:06:00,
2013-10-19 01:11:00,47.4,47.0,30.27,WNW,292,2.6,2.6,100,0.00,,,0.00,Rainwise IP-100,2013-10-19 08:11:00,
2013-10-19 01:15:00,47.3,47.0,30.27,WSW,247,0.0,3.0,100,0.00,,,0.00,Rainwise IP-100,2013-10-19 08:15:00,
2013-10-19 01:20:00,47.3,47.0,30.27,WSW,247,2.3,4.0,100,0.00,,,0.00,Rainwise IP-100,2013-10-19 08:20:00,
2013-10-19 01:25:00,47.3,47.0,30.27,SSW,202,0.0,4.0,100,0.00,,,0.00,Rainwise IP-100,2013-10-19 08:25:00,
2013-10-19 01:30:00,47.3,47.0,30.27,WNW,292,3.7,4.0,100,0.00,,,0.00,Rainwise IP-100,2013-10-19 08:30:00,
2013-10-19 01:35:00,47.4,47.0,30.27,West,270,1.2,5.0,100,0.00,,,0.00,Rainwise IP-100,2013-10-19 08:35:00,
2013-10-19 01:40:00,47.4,47.0,30.27,NNW,337,0.0,4.0,100,0.00,,,0.00,Rainwise IP-100,2013-10-19 08:40:00,
2013-10-19 01:45:00,47.4,47.0,30.27,SSW,202,0.0,4.0,100,0.00,,,0.00,Rainwise IP-100,2013-10-19 08:45:00,
2013-10-19 01:50:00,47.4,47.0,30.27,SSW,202,0.0,4.0,100,0.00,,,0.00,Rainwise IP-100,2013-10-19 08:50:00,
2013-10-19 01:55:00,47.5,47.0,30.27,WSW,247,0.0,4.0,100,0.00,,,0.00,Rainwise IP-100,2013-10-19 08:55:00,
2013-10-19 02:00:00,47.6,47.0,30.27,West,270,1.6,3.0,100,0.00,,,0.00,Rainwise IP-100,2013-10-19 09:00:00,
2013-10-19 02:05:00,47.6,47.0,30.28,WSW,247,0.0,5.0,100,0.00,,,0.00,Rainwise IP-100,2013-10-19 09:05:00,
2013-10-19 02:10:00,47.6,47.0,30.27,WSW,247,0.0,3.0,100,0.00,,,0.00,Rainwise IP-100,2013-10-19 09:10:00,
2013-10-19 02:15:00,47.6,47.0,30.27,SW,225,1.6,4.0,100,0.00,,,0.00,Rainwise IP-100,2013-10-19 09:15:00,
2013-10-19 02:20:00,47.6,47.0,30.27,SSW,202,0.0,2.0,100,0.00,,,0.00,Rainwise IP-100,2013-10-19 09:20:00,
2013-10-19 02:25:00,47.6,47.0,30.28,WSW,247,0.0,4.0,100,0.00,,,0.00,Rainwise IP-100,2013-10-19 09:25:00,
2013-10-19 02:30:00,47.6,47.0,30.27,SSW,202,0.0,4.0,100,0.00,,,0.00,Rainwise IP-100,2013-10-19 09:30:00,
2013-10-19 02:35:00,47.5,47.0,30.27,SW,225,0.0,2.0,100,0.00,,,0.00,Rainwise IP-100,2013-10-19 09:35:00,
2013-10-19 02:40:00,47.5,47.0,30.27,SW,225,0.0,1.0,100,0.00,,,0.00,Rainwise IP-100,2013-10-19 09:40:00,
2013-10-19 02:45:00,47.5,47.0,30.27,SSW,202,0.0,2.0,100,0.00,,,0.00,Rainwise IP-100,2013-10-19 09:45:00,
2013-10-19 02:50:00,47.4,47.0,30.27,SSW,202,0.0,0.0,100,0.00,,,0.00,Rainwise IP-100,2013-10-19 09:50:00,
2013-10-19 02:55:00,47.3,47.0,30.27,SSW,202,2.3,2.3,100,0.00,,,0.00,Rainwise IP-100,2013-10-19 09:55:00,
2013-10-19 03:00:00,47.3,47.0,30.27,SW,225,0.0,3.0,100,0.00,,,0.00,Rainwise IP-100,2013-10-19 10:00:00,
2013-10-19 03:05:00,47.3,47.0,30.26,WSW,247,0.0,1.0,100,0.00,,,0.00,Rainwise IP-100,2013-10-19 10:05:00,
2013-10-19 03:10:00,47.2,47.0,30.26,WSW,247,1.9,1.9,100,0.00,,,0.00,Rainwise IP-100,2013-10-19 10:10:00,
2013-10-19 03:15:00,47.2,47.0,30.26,West,270,2.3,2.3,100,0.00,,,0.00,Rainwise IP-100,2013-10-19 10:15:00,
2013-10-19 03:20:00,47.3,47.0,30.26,WNW,292,0.0,3.0,100,0.00,,,0.00,Rainwise IP-100,2013-10-19 10:20:00,
2013-10-19 03:25:00,47.4,47.0,30.26,West,270,1.4,3.0,100,0.00,,,0.00,Rainwise IP-100,2013-10-19 10:25:00,
2013-10-19 03:30:00,47.3,47.0,30.26,SW,225,0.0,4.0,100,0.00,,,0.00,Rainwise IP-100,2013-10-19 10:30:00,
2013-10-19 03:35:00,47.3,47.0,30.27,WSW,247,1.2,2.0,100,0.00,,,0.00,Rainwise IP-100,2013-10-19 10:35:00,
2013-10-19 03:40:00,47.3,47.0,30.27,West,270,1.6,5.0,100,0.00,,,0.00,Rainwise IP-100,2013-10-19 10:40:00,
2013-10-19 03:45:00,47.3,47.0,30.27,SW,225,0.0,3.0,100,0.00,,,0.00,Rainwise IP-100,2013-10-19 10:45:00,
2013-10-19 03:50:00,47.3,47.0,30.27,SSW,202,1.6,4.0,100,0.00,,,0.00,Rainwise IP-100,2013-10-19 10:50:00,
2013-10-19 03:55:00,47.3,47.0,30.27,SW,225,1.4,3.0,100,0.00,,,0.00,Rainwise IP-100,2013-10-19 10:55:00,
2013-10-19 04:00:00,47.3,47.0,30.26,West,270,2.8,5.0,100,0.00,,,0.00,Rainwise IP-100,2013-10-19 11:00:00,
2013-10-19 04:05:00,47.3,47.0,30.27,NNW,337,1.4,3.0,100,0.00,,,0.00,Rainwise IP-100,2013-10-19 11:05:00,
2013-10-19 04:10:00,47.3,47.0,30.27,West,270,2.1,3.0,100,0.00,,,0.00,Rainwise IP-100,2013-10-19 11:10:00,
2013-10-19 04:15:00,47.3,47.0,30.27,SSW,202,0.0,3.0,100,0.00,,,0.00,Rainwise IP-100,2013-10-19 11:15:00,
2013-10-19 04:20:00,47.3,47.0,30.27,SSW,202,1.4,3.0,100,0.00,,,0.00,Rainwise IP-100,2013-10-19 11:20:00,
2013-10-19 04:25:00,47.3,47.0,30.27,WSW,247,0.0,2.0,100,0.00,,,0.00,Rainwise IP-100,2013-10-19 11:25:00,
2013-10-19 04:30:00,47.3,47.0,30.27,SW,225,1.4,6.0,100,0.00,,,0.00,Rainwise IP-100,2013-10-19 11:30:00,
2013-10-19 04:35:00,47.2,47.0,30.27,SW,225,1.6,3.0,100,0.00,,,0.00,Rainwise IP-100,2013-10-19 11:35:00,
2013-10-19 04:40:00,47.2,47.0,30.27,SSW,202,1.6,4.0,100,0.00,,,0.00,Rainwise IP-100,2013-10-19 11:40:00,
2013-10-19 04:45:00,47.3,47.0,30.27,SSW,202,1.2,4.0,100,0.00,,,0.00,Rainwise IP-100,2013-10-19 11:45:00,
2013-10-19 04:50:00,47.3,47.0,30.27,WNW,292,1.4,4.0,100,0.00,,,0.00,Rainwise IP-100,2013-10-19 11:50:00,
2013-10-19 04:55:00,47.3,47.0,30.27,West,270,1.6,5.0,100,0.00,,,0.00,Rainwise IP-100,2013-10-19 11:55:00,
2013-10-19 05:00:00,47.3,47.0,30.28,WNW,292,0.0,5.0,100,0.00,,,0.00,Rainwise IP-100,2013-10-19 12:00:00,
2013-10-19 05:05:00,47.4,47.0,30.27,West,270,0.0,5.0,100,0.00,,,0.00,Rainwise IP-100,2013-10-19 12:05:00,
2013-10-19 05:10:00,47.4,47.0,30.28,WNW,292,0.0,3.0,100,0.00,,,0.00,Rainwise IP-100,2013-10-19 12:10:00,
2013-10-19 05:15:00,47.4,47.0,30.28,West,270,0.0,4.0,100,0.00,,,0.00,Rainwise IP-100,2013-10-19 12:15:00,
2013-10-19 05:20:00,47.5,47.0,30.28,WSW,247,1.2,4.0,100,0.00,,,0.00,Rainwise IP-100,2013-10-19 12:20:00,
2013-10-19 05:25:00,47.6,47.0,30.28,South,180,0.0,5.0,100,0.00,,,0.00,Rainwise IP-100,2013-10-19 12:25:00,
2013-10-19 05:30:00,47.5,47.0,30.28,SW,225,1.2,4.0,100,0.00,,,0.00,Rainwise IP-100,2013-10-19 12:30:00,
2013-10-19 05:35:00,47.3,47.0,30.28,WNW,292,0.0,3.0,100,0.00,,,0.00,Rainwise IP-100,2013-10-19 12:35:00,
2013-10-19 05:40:00,47.3,47.0,30.28,WNW,292,0.0,2.0,100,0.00,,,0.00,Rainwise IP-100,2013-10-19 12:40:00,
2013-10-19 05:45:00,47.3,47.0,30.28,WNW,292,0.0,0.0,100,0.00,,,0.00,Rainwise IP-100,2013-10-19 12:45:00,
2013-10-19 05:50:00,47.1,47.0,30.28,SSW,202,0.0,2.0,100,0.00,,,0.00,Rainwise IP-100,2013-10-19 12:50:00,
2013-10-19 05:55:00,47.0,47.0,30.28,WSW,247,1.4,2.0,100,0.00,,,0.00,Rainwise IP-100,2013-10-19 12:55:00,
2013-10-19 06:00:00,47.1,47.0,30.28,WSW,247,1.2,2.0,100,0.00,,,0.00,Rainwise IP-100,2013-10-19 13:00:00,
2013-10-19 06:05:00,47.1,47.0,30.28,West,270,1.2,2.0,100,0.00,,,0.00,Rainwise IP-100,2013-10-19 13:05:00,
2013-10-19 06:10:00,47.1,47.0,30.29,WSW,247,0.0,2.0,100,0.00,,,0.00,Rainwise IP-100,2013-10-19 13:10:00,
2013-10-19 06:15:00,46.9,47.0,30.29,WSW,247,0.0,1.0,100,0.00,,,0.00,Rainwise IP-100,2013-10-19 13:15:00,
2013-10-19 06:20:00,46.8,47.0,30.29,WSW,247,1.2,1.2,100,0.00,,,0.00,Rainwise IP-100,2013-10-19 13:20:00,
2013-10-19 06:25:00,47.0,47.0,30.29,SSW,202,1.9,2.0,100,0.00,,,0.00,Rainwise IP-100,2013-10-19 13:25:00,
2013-10-19 06:30:00,47.1,47.0,30.29,West,270,1.4,3.0,100,0.00,,,0.00,Rainwise IP-100,2013-10-19 13:30:00,
2013-10-19 06:35:00,47.1,47.0,30.29,WNW,292,0.0,3.0,100,0.00,,,0.00,Rainwise IP-100,2013-10-19 13:35:00,
2013-10-19 06:40:00,47.0,47.0,30.29,WNW,292,0.0,1.0,100,0.00,,,0.00,Rainwise IP-100,2013-10-19 13:40:00,
2013-10-19 06:45:00,46.9,47.0,30.29,SW,225,0.0,2.0,100,0.00,,,0.00,Rainwise IP-100,2013-10-19 13:45:00,
2013-10-19 06:50:00,46.8,47.0,30.29,SW,225,1.4,1.4,100,0.00,,,0.00,Rainwise IP-100,2013-10-19 13:50:00,
2013-10-19 06:55:00,46.7,47.0,30.29,WSW,247,0.0,2.0,100,0.00,,,0.00,Rainwise IP-100,2013-10-19 13:55:00,
2013-10-19 07:00:00,46.7,47.0,30.28,SW,225,0.0,2.0,100,0.00,,,0.00,Rainwise IP-100,2013-10-19 14:00:00,
2013-10-19 07:05:00,46.7,47.0,30.29,West,270,0.0,1.0,100,0.00,,,0.00,Rainwise IP-100,2013-10-19 14:05:00,
2013-10-19 07:10:00,46.7,47.0,30.29,WNW,292,0.0,2.0,100,0.00,,,0.00,Rainwise IP-100,2013-10-19 14:10:00,
2013-10-19 07:15:00,46.6,47.0,30.29,WNW,292,0.0,1.0,100,0.00,,,0.00,Rainwise IP-100,2013-10-19 14:15:00,
2013-10-19 07:20:00,46.4,46.0,30.29,WNW,292,0.0,0.0,100,0.00,,,0.00,Rainwise IP-100,2013-10-19 14:20:00,
2013-10-19 07:25:00,46.3,46.0,30.29,WNW,292,1.2,0.0,100,0.00,,,0.00,Rainwise IP-100,2013-10-19 14:25:00,
2013-10-19 07:30:00,46.3,46.0,30.29,WSW,247,0.0,2.0,100,0.00,,,0.00,Rainwise IP-100,2013-10-19 14:30:00,
2013-10-19 07:35:00,46.4,46.0,30.29,WNW,292,1.4,2.0,100,0.00,,,0.00,Rainwise IP-100,2013-10-19 14:35:00,
2013-10-19 07:40:00,46.4,46.0,30.29,WSW,247,0.0,3.0,100,0.00,,,0.00,Rainwise IP-100,2013-10-19 14:40:00,
2013-10-19 07:45:00,46.4,46.0,30.29,SW,225,0.0,2.0,100,0.06,,,0.01,Rainwise IP-100,2013-10-19 14:45:00,
2013-10-19 07:50:00,46.4,46.0,30.29,West,270,0.0,1.0,100,0.06,,,0.01,Rainwise IP-100,2013-10-19 14:50:00,
2013-10-19 07:55:00,46.6,47.0,30.29,SW,225,1.6,2.0,100,0.00,,,0.01,Rainwise IP-100,2013-10-19 14:55:00,
2013-10-19 08:00:00,46.8,47.0,30.30,WSW,247,1.4,4.0,100,0.00,,,0.01,Rainwise IP-100,2013-10-19 15:00:00,
2013-10-19 08:05:00,46.9,47.0,30.29,West,270,1.4,3.0,100,0.00,,,0.01,Rainwise IP-100,2013-10-19 15:05:00,
2013-10-19 08:10:00,47.1,47.0,30.30,WSW,247,0.0,2.0,100,0.00,,,0.01,Rainwise IP-100,2013-10-19 15:10:00,
2013-10-19 08:15:00,47.6,47.0,30.30,WSW,247,0.0,0.0,100,0.00,,,0.01,Rainwise IP-100,2013-10-19 15:15:00,
2013-10-19 08:20:00,48.2,48.0,30.30,WSW,247,0.0,1.0,100,0.00,,,0.01,Rainwise IP-100,2013-10-19 15:20:00,
2013-10-19 08:25:00,48.8,49.0,30.31,South,180,0.0,1.0,100,0.00,,,0.01,Rainwise IP-100,2013-10-19 15:25:00,
2013-10-19 08:30:00,49.0,49.0,30.31,SSW,202,3.0,3.0,100,0.00,,,0.01,Rainwise IP-100,2013-10-19 15:30:00,
2013-10-19 08:35:00,48.9,49.0,30.31,SSE,157,0.0,4.0,100,0.00,,,0.01,Rainwise IP-100,2013-10-19 15:35:00,
2013-10-19 08:40:00,49.1,49.0,30.31,SSE,157,0.0,1.0,100,0.00,,,0.01,Rainwise IP-100,2013-10-19 15:40:00,
2013-10-19 08:45:00,49.9,50.0,30.31,South,180,1.4,2.0,100,0.00,,,0.01,Rainwise IP-100,2013-10-19 15:45:00,
2013-10-19 08:50:00,50.2,50.0,30.32,SE,135,0.0,2.0,100,0.00,,,0.01,Rainwise IP-100,2013-10-19 15:50:00,
2013-10-19 08:55:00,50.5,50.0,30.31,SE,135,0.0,2.0,100,0.00,,,0.01,Rainwise IP-100,2013-10-19 15:55:00,
2013-10-19 09:00:00,50.9,51.0,30.32,SE,135,1.2,2.0,100,0.00,,,0.01,Rainwise IP-100,2013-10-19 16:00:00,
2013-10-19 09:05:00,51.4,51.0,30.31,SE,135,1.6,2.0,100,0.00,,,0.01,Rainwise IP-100,2013-10-19 16:05:00,
2013-10-19 09:10:00,51.9,52.0,30.31,SE,135,1.4,2.0,100,0.00,,,0.01,Rainwise IP-100,2013-10-19 16:10:00,
2013-10-19 09:15:00,52.5,53.0,30.32,SE,135,2.3,3.0,100,0.00,,,0.01,Rainwise IP-100,2013-10-19 16:15:00,
2013-10-19 09:20:00,53.0,53.0,30.31,SE,135,1.9,3.0,100,0.00,,,0.01,Rainwise IP-100,2013-10-19 16:20:00,
2013-10-19 09:25:00,53.1,53.0,30.32,ESE,112,2.3,3.0,100,0.00,,,0.01,Rainwise IP-100,2013-10-19 16:25:00,
2013-10-19 09:30:00,53.4,53.0,30.32,SSE,157,2.3,3.0,100,0.00,,,0.01,Rainwise IP-100,2013-10-19 16:30:00,
2013-10-19 09:35:00,54.2,54.0,30.32,ESE,112,3.5,3.5,100,0.00,,,0.01,Rainwise IP-100,2013-10-19 16:35:00,
2013-10-19 09:40:00,54.9,55.0,30.32,East,90,4.0,6.0,99,0.00,,,0.01,Rainwise IP-100,2013-10-19 16:40:00,
2013-10-19 09:45:00,55.6,55.0,30.32,ESE,112,2.6,5.0,97,0.00,,,0.01,Rainwise IP-100,2013-10-19 16:45:00,
2013-10-19 09:50:00,56.9,55.0,30.32,ESE,112,3.3,5.0,94,0.00,,,0.01,Rainwise IP-100,2013-10-19 16:50:00,
2013-10-19 09:55:00,58.3,55.0,30.32,SSE,157,3.0,4.0,89,0.00,,,0.01,Rainwise IP-100,2013-10-19 16:55:00,
2013-10-19 10:00:00,59.1,54.0,30.32,SE,135,2.3,6.0,85,0.00,,,0.01,Rainwise IP-100,2013-10-19 17:00:00,
2013-10-19 10:05:00,59.8,54.0,30.32,ESE,112,4.2,7.0,82,0.00,,,0.01,Rainwise IP-100,2013-10-19 17:05:00,
2013-10-19 10:10:00,60.0,54.0,30.32,ESE,112,3.3,6.0,80,0.00,,,0.01,Rainwise IP-100,2013-10-19 17:10:00,
2013-10-19 10:15:00,60.0,53.0,30.32,East,90,1.6,6.0,79,0.00,,,0.01,Rainwise IP-100,2013-10-19 17:15:00,
2013-10-19 10:20:00,60.7,53.0,30.32,East,90,4.0,5.0,78,0.00,,,0.01,Rainwise IP-100,2013-10-19 17:20:00,
2013-10-19 10:25:00,61.4,54.0,30.32,NE,45,1.6,5.0,76,0.00,,,0.01,Rainwise IP-100,2013-10-19 17:25:00,
2013-10-19 10:30:00,61.7,53.0,30.31,ESE,112,1.4,7.0,74,0.00,,,0.01,Rainwise IP-100,2013-10-19 17:30:00,
2013-10-19 10:35:00,62.2,53.0,30.31,ESE,112,4.4,5.0,73,0.00,,,0.01,Rainwise IP-100,2013-10-19 17:35:00,
2013-10-19 10:40:00,62.9,53.0,30.32,ENE,67,3.5,7.0,71,0.00,,,0.01,Rainwise IP-100,2013-10-19 17:40:00,
2013-10-19 10:45:00,63.4,53.0,30.31,ESE,112,5.6,7.0,70,0.00,,,0.01,Rainwise IP-100,2013-10-19 17:45:00,
2013-10-19 10:50:00,63.7,53.0,30.31,NE,45,2.8,6.0,69,0.00,,,0.01,Rainwise IP-100,2013-10-19 17:50:00,
2013-10-19 10:55:00,64.4,53.0,30.31,ENE,67,3.0,5.0,68,0.00,,,0.01,Rainwise IP-100,2013-10-19 17:55:00,
2013-10-19 11:00:00,65.4,54.0,30.31,ESE,112,3.7,5.0,66,0.00,,,0.01,Rainwise IP-100,2013-10-19 18:00:00,
2013-10-19 11:05:00,65.8,53.0,30.31,SSE,157,1.6,5.0,65,0.00,,,0.01,Rainwise IP-100,2013-10-19 18:05:00,
2013-10-19 11:10:00,66.4,54.0,30.31,SE,135,3.5,4.0,64,0.00,,,0.01,Rainwise IP-100,2013-10-19 18:10:00,
2013-10-19 11:15:00,67.3,53.0,30.31,SSE,157,2.6,6.0,61,0.00,,,0.01,Rainwise IP-100,2013-10-19 18:15:00,
2013-10-19 11:20:00,68.0,53.0,30.31,SW,225,0.0,5.0,58,0.00,,,0.01,Rainwise IP-100,2013-10-19 18:20:00,
2013-10-19 11:25:00,68.6,52.0,30.31,ESE,112,2.6,6.0,56,0.00,,,0.01,Rainwise IP-100,2013-10-19 18:25:00,
2013-10-19 11:30:00,68.9,52.0,30.31,SE,135,4.2,5.0,55,0.00,,,0.01,Rainwise IP-100,2013-10-19 18:30:00,
2013-10-19 11:35:00,68.9,51.0,30.31,ESE,112,3.0,5.0,54,0.00,,,0.01,Rainwise IP-100,2013-10-19 18:35:00,
2013-10-19 11:40:00,69.5,52.0,30.31,ESE,112,3.7,4.0,53,0.00,,,0.01,Rainwise IP-100,2013-10-19 18:40:00,
2013-10-19 11:45:00,70.2,52.0,30.31,SE,135,2.3,6.0,53,0.00,,,0.01,Rainwise IP-100,2013-10-19 18:45:00,
2013-10-19 11:50:00,70.2,51.0,30.31,ESE,112,3.5,5.0,52,0.00,,,0.01,Rainwise IP-100,2013-10-19 18:50:00,
2013-10-19 11:55:00,70.4,52.0,30.31,SE,135,4.0,6.0,52,0.00,,,0.01,Rainwise IP-100,2013-10-19 18:55:00,
2013-10-19 12:00:00,70.8,51.0,30.31,East,90,2.1,4.0,51,0.00,,,0.01,Rainwise IP-100,2013-10-19 19:00:00,
2013-10-19 12:05:00,71.2,52.0,30.31,SSE,157,6.1,6.1,50,0.00,,,0.01,Rainwise IP-100,2013-10-19 19:05:00,
2013-10-19 12:10:00,71.5,51.0,30.30,East,90,1.2,6.0,49,0.00,,,0.01,Rainwise IP-100,2013-10-19 19:10:00,
2013-10-19 12:15:00,71.8,50.0,30.30,SE,135,3.7,5.0,48,0.00,,,0.01,Rainwise IP-100,2013-10-19 19:15:00,
2013-10-19 12:20:00,72.1,51.0,30.30,ESE,112,2.6,5.0,48,0.00,,,0.01,Rainwise IP-100,2013-10-19 19:20:00,
2013-10-19 12:25:00,72.6,51.0,30.30,ESE,112,2.3,7.0,47,0.00,,,0.01,Rainwise IP-100,2013-10-19 19:25:00,
2013-10-19 12:30:00,73.2,51.0,30.30,NNE,22,0.0,5.0,46,0.00,,,0.01,Rainwise IP-100,2013-10-19 19:30:00,
2013-10-19 12:35:00,73.8,51.0,30.30,SSE,157,5.1,5.1,45,0.00,,,0.01,Rainwise IP-100,2013-10-19 19:35:00,
2013-10-19 12:40:00,73.7,50.0,30.29,SSE,157,4.0,5.0,44,0.00,,,0.01,Rainwise IP-100,2013-10-19 19:40:00,
2013-10-19 12:45:00,74.0,50.0,30.29,ESE,112,2.8,7.0,44,0.00,,,0.01,Rainwise IP-100,2013-10-19 19:45:00,
2013-10-19 12:50:00,74.9,51.0,30.29,ESE,112,3.3,5.0,43,0.00,,,0.01,Rainwise IP-100,2013-10-19 19:50:00,
2013-10-19 12:55:00,75.3,50.0,30.29,ESE,112,2.1,5.0,42,0.00,,,0.01,Rainwise IP-100,2013-10-19 19:55:00,
2013-10-19 13:00:00,75.5,50.0,30.29,SSW,202,5.8,5.8,42,0.00,,,0.01,Rainwise IP-100,2013-10-19 20:00:00,
2013-10-19 13:05:00,74.6,52.0,30.29,SSW,202,6.8,7.0,45,0.00,,,0.01,Rainwise IP-100,2013-10-19 20:05:00,
2013-10-19 13:10:00,73.1,52.0,30.29,SSW,202,4.0,6.0,48,0.00,,,0.01,Rainwise IP-100,2013-10-19 20:10:00,
2013-10-19 13:15:00,72.6,53.0,30.28,SSW,202,6.1,6.1,50,0.00,,,0.01,Rainwise IP-100,2013-10-19 20:15:00,
2013-10-19 13:20:00,72.3,53.0,30.28,SW,225,6.8,7.0,51,0.00,,,0.01,Rainwise IP-100,2013-10-19 20:20:00,
2013-10-19 13:25:00,71.2,53.0,30.28,NNW,337,2.1,8.0,52,0.00,,,0.01,Rainwise IP-100,2013-10-19 20:25:00,
2013-10-19 13:30:00,70.7,53.0,30.28,WNW,292,1.6,7.0,53,0.00,,,0.01,Rainwise IP-100,2013-10-19 20:30:00,
2013-10-19 13:35:00,71.1,53.0,30.28,SW,225,1.9,6.0,53,0.00,,,0.01,Rainwise IP-100,2013-10-19 20:35:00,
2013-10-19 13:40:00,70.9,53.0,30.28,SSW,202,1.2,8.0,53,0.00,,,0.01,Rainwise IP-100,2013-10-19 20:40:00,
2013-10-19 13:45:00,70.4,53.0,30.27,SW,225,2.8,8.0,54,0.00,,,0.01,Rainwise IP-100,2013-10-19 20:45:00,
2013-10-19 13:50:00,70.4,53.0,30.27,WNW,292,2.1,6.0,54,0.00,,,0.01,Rainwise IP-100,2013-10-19 20:50:00,
2013-10-19 13:55:00,70.5,53.0,30.27,SSW,202,8.4,8.4,54,0.00,,,0.01,Rainwise IP-100,2013-10-19 20:55:00,
2013-10-19 14:00:00,70.4,53.0,30.27,SW,225,5.6,8.0,54,0.00,,,0.01,Rainwise IP-100,2013-10-19 21:00:00,
2013-10-19 14:05:00,69.5,53.0,30.27,NW,315,0.0,7.0,55,0.00,,,0.01,Rainwise IP-100,2013-10-19 21:05:00,
2013-10-19 14:10:00,69.0,53.0,30.27,SSW,202,3.3,6.0,56,0.00,,,0.01,Rainwise IP-100,2013-10-19 21:10:00,
2013-10-19 14:15:00,69.0,53.0,30.27,SW,225,4.0,8.0,57,0.00,,,0.01,Rainwise IP-100,2013-10-19 21:15:00,
2013-10-19 14:20:00,68.4,53.0,30.27,WSW,247,2.8,8.0,57,0.00,,,0.01,Rainwise IP-100,2013-10-19 21:20:00,
2013-10-19 14:25:00,68.2,53.0,30.26,WNW,292,4.2,7.0,58,0.00,,,0.01,Rainwise IP-100,2013-10-19 21:25:00,
2013-10-19 14:30:00,68.6,53.0,30.26,WSW,247,2.1,7.0,57,0.00,,,0.01,Rainwise IP-100,2013-10-19 21:30:00,
2013-10-19 14:35:00,68.5,53.0,30.26,West,270,1.9,7.0,57,0.00,,,0.01,Rainwise IP-100,2013-10-19 21:35:00,
2013-10-19 14:40:00,68.3,52.0,30.26,NW,315,1.2,7.0,56,0.00,,,0.01,Rainwise IP-100,2013-10-19 21:40:00,
2013-10-19 14:45:00,67.9,52.0,30.26,WSW,247,2.8,11.0,57,0.00,,,0.01,Rainwise IP-100,2013-10-19 21:45:00,
2013-10-19 14:50:00,67.3,52.0,30.26,SSW,202,6.5,7.0,58,0.00,,,0.01,Rainwise IP-100,2013-10-19 21:50:00,
2013-10-19 14:55:00,67.3,52.0,30.26,WNW,292,1.9,9.0,58,0.00,,,0.01,Rainwise IP-100,2013-10-19 21:55:00,
2013-10-19 15:00:00,67.4,52.0,30.26,West,270,3.3,6.0,58,0.00,,,0.01,Rainwise IP-100,2013-10-19 22:00:00,
2013-10-19 15:05:00,67.3,52.0,30.26,SSW,202,4.7,8.0,58,0.00,,,0.01,Rainwise IP-100,2013-10-19 22:05:00,
2013-10-19 15:10:00,66.6,52.0,30.26,SW,225,5.6,7.0,59,0.00,,,0.01,Rainwise IP-100,2013-10-19 22:10:00,
2013-10-19 15:15:00,65.7,51.0,30.26,WSW,247,6.8,9.0,61,0.00,,,0.01,Rainwise IP-100,2013-10-19 22:15:00,
2013-10-19 15:20:00,65.1,51.0,30.26,SSW,202,1.6,8.0,62,0.00,,,0.01,Rainwise IP-100,2013-10-19 22:20:00,
2013-10-19 15:25:00,65.5,52.0,30.26,NNW,337,2.8,9.0,62,0.00,,,0.01,Rainwise IP-100,2013-10-19 22:25:00,
2013-10-19 15:30:00,65.5,52.0,30.26,SSW,202,3.3,9.0,62,0.00,,,0.01,Rainwise IP-100,2013-10-19 22:30:00,
2013-10-19 15:35:00,64.6,51.0,30.26,SW,225,4.2,11.0,63,0.00,,,0.01,Rainwise IP-100,2013-10-19 22:35:00,
2013-10-19 15:40:00,63.7,51.0,30.26,South,180,2.6,10.0,65,0.00,,,0.01,Rainwise IP-100,2013-10-19 22:40:00,
2013-10-19 15:45:00,63.5,52.0,30.26,SW,225,4.7,8.0,66,0.00,,,0.01,Rainwise IP-100,2013-10-19 22:45:00,
2013-10-19 15:50:00,63.8,52.0,30.25,SSW,202,6.3,8.0,66,0.00,,,0.01,Rainwise IP-100,2013-10-19 22:50:00,
2013-10-19 15:55:00,63.4,52.0,30.26,West,270,2.3,11.0,66,0.00,,,0.01,Rainwise IP-100,2013-10-19 22:55:00,
2013-10-19 16:00:00,63.1,51.0,30.26,SSW,202,3.5,11.0,66,0.00,,,0.01,Rainwise IP-100,2013-10-19 23:00:00,
2013-10-19 16:05:00,63.4,52.0,30.25,South,180,3.0,7.0,66,0.00,,,0.01,Rainwise IP-100,2013-10-19 23:05:00,
2013-10-19 16:10:00,63.7,51.0,30.26,SSE,157,0.0,10.0,65,0.00,,,0.01,Rainwise IP-100,2013-10-19 23:10:00,
2013-10-19 16:15:00,64.0,52.0,30.25,ENE,67,0.0,5.0,65,0.00,,,0.01,Rainwise IP-100,2013-10-19 23:15:00,
2013-10-19 16:20:00,64.4,52.0,30.25,WNW,292,1.2,7.0,64,0.00,,,0.01,Rainwise IP-100,2013-10-19 23:20:00,
2013-10-19 16:25:00,64.6,52.0,30.25,WNW,292,2.1,6.0,64,0.00,,,0.01,Rainwise IP-100,2013-10-19 23:25:00,
2013-10-19 16:30:00,64.2,51.0,30.26,SW,225,4.2,12.0,64,0.00,,,0.01,Rainwise IP-100,2013-10-19 23:30:00,
2013-10-19 16:35:00,62.8,51.0,30.26,SSW,202,4.2,13.0,66,0.00,,,0.01,Rainwise IP-100,2013-10-19 23:35:00,
2013-10-19 16:40:00,61.3,51.0,30.26,West,270,6.5,13.0,70,0.00,,,0.01,Rainwise IP-100,2013-10-19 23:40:00,
2013-10-19 16:45:00,60.3,50.0,30.26,SSW,202,5.4,13.0,72,0.00,,,0.01,Rainwise IP-100,2013-10-19 23:45:00,
2013-10-19 16:50:00,59.3,50.0,30.26,SW,225,7.0,14.0,74,0.00,,,0.01,Rainwise IP-100,2013-10-19 23:50:00,
2013-10-19 16:55:00,58.1,50.0,30.27,SE,135,4.0,12.0,76,0.00,,,0.01,Rainwise IP-100,2013-10-19 23:55:00,
2013-10-19 17:00:00,57.5,50.0,30.26,SW,225,5.4,11.0,78,0.00,,,0.01,Rainwise IP-100,2013-10-20 00:00:00,
2013-10-19 17:05:00,57.5,51.0,30.26,SW,225,5.1,11.0,79,0.00,,,0.01,Rainwise IP-100,2013-10-20 00:05:00,
2013-10-19 17:10:00,57.6,51.0,30.26,SSW,202,1.6,8.0,79,0.00,,,0.01,Rainwise IP-100,2013-10-20 00:10:00,
2013-10-19 17:15:00,57.7,51.0,30.26,SW,225,4.2,11.0,79,0.00,,,0.01,Rainwise IP-100,2013-10-20 00:15:00,
2013-10-19 17:20:00,57.5,51.0,30.26,WSW,247,6.8,8.0,79,0.00,,,0.01,Rainwise IP-100,2013-10-20 00:20:00,
2013-10-19 17:25:00,57.0,51.0,30.26,East,90,1.9,10.0,80,0.00,,,0.01,Rainwise IP-100,2013-10-20 00:25:00,
2013-10-19 17:30:00,56.5,50.0,30.26,ESE,112,1.4,9.0,81,0.00,,,0.01,Rainwise IP-100,2013-10-20 00:30:00,
2013-10-19 17:35:00,56.5,51.0,30.26,WSW,247,3.3,10.0,82,0.00,,,0.01,Rainwise IP-100,2013-10-20 00:35:00,
2013-10-19 17:40:00,56.4,51.0,30.26,WSW,247,1.4,10.0,82,0.00,,,0.01,Rainwise IP-100,2013-10-20 00:40:00,
2013-10-19 17:45:00,56.3,50.0,30.26,SW,225,2.3,9.0,83,0.00,,,0.01,Rainwise IP-100,2013-10-20 00:45:00,
2013-10-19 17:50:00,56.0,50.0,30.26,WSW,247,4.2,8.0,83,0.00,,,0.01,Rainwise IP-100,2013-10-20 00:50:00,
2013-10-19 17:55:00,55.3,50.0,30.26,WSW,247,1.9,10.0,84,0.00,,,0.01,Rainwise IP-100,2013-10-20 00:55:00,
2013-10-19 18:00:00,54.5,50.0,30.26,SW,225,6.5,11.0,85,0.00,,,0.01,Rainwise IP-100,2013-10-20 01:00:00,
2013-10-19 18:05:00,53.9,50.0,30.26,WSW,247,5.4,14.0,87,0.00,,,0.01,Rainwise IP-100,2013-10-20 01:05:00,
2013-10-19 18:10:00,53.3,49.0,30.25,SSW,202,3.7,12.0,88,0.00,,,0.01,Rainwise IP-100,2013-10-20 01:10:00,
2013-10-19 18:15:00,52.9,50.0,30.25,WNW,292,1.2,8.0,89,0.00,,,0.01,Rainwise IP-100,2013-10-20 01:15:00,
2013-10-19 18:20:00,52.7,50.0,30.25,South,180,3.0,11.0,90,0.00,,,0.01,Rainwise IP-100,2013-10-20 01:20:00,
2013-10-19 18:25:00,52.6,50.0,30.25,SSW,202,1.9,10.0,91,0.00,,,0.01,Rainwise IP-100,2013-10-20 01:25:00,
2013-10-19 18:30:00,52.4,49.0,30.25,NW,315,1.6,11.0,91,0.00,,,0.01,Rainwise IP-100,2013-10-20 01:30:00,
2013-10-19 18:35:00,52.2,50.0,30.25,SSE,157,3.7,6.0,92,0.00,,,0.01,Rainwise IP-100,2013-10-20 01:35:00,
2013-10-19 18:40:00,52.1,50.0,30.25,WSW,247,0.0,7.0,92,0.00,,,0.01,Rainwise IP-100,2013-10-20 01:40:00,
2013-10-19 18:45:00,51.9,50.0,30.25,WNW,292,0.0,7.0,92,0.00,,,0.01,Rainwise IP-100,2013-10-20 01:45:00,
2013-10-19 18:50:00,51.8,50.0,30.25,SSE,157,0.0,5.0,93,0.00,,,0.01,Rainwise IP-100,2013-10-20 01:50:00,
2013-10-19 18:55:00,51.8,50.0,30.25,WNW,292,2.1,5.0,93,0.00,,,0.01,Rainwise IP-100,2013-10-20 01:55:00,
2013-10-19 19:00:00,51.6,50.0,30.25,NW,315,3.0,5.0,93,0.00,,,0.01,Rainwise IP-100,2013-10-20 02:00:00,
2013-10-19 19:05:00,51.4,49.0,30.25,WNW,292,2.1,6.0,93,0.00,,,0.01,Rainwise IP-100,2013-10-20 02:05:00,
2013-10-19 19:10:00,51.5,50.0,30.26,ESE,112,0.0,3.0,94,0.00,,,0.01,Rainwise IP-100,2013-10-20 02:10:00,
2013-10-19 19:15:00,51.4,50.0,30.26,WSW,247,4.9,6.0,94,0.00,,,0.01,Rainwise IP-100,2013-10-20 02:15:00,
2013-10-19 19:20:00,51.4,50.0,30.25,WNW,292,1.2,9.0,94,0.00,,,0.01,Rainwise IP-100,2013-10-20 02:20:00,
2013-10-19 19:25:00,51.3,50.0,30.26,NW,315,2.3,7.0,94,0.00,,,0.01,Rainwise IP-100,2013-10-20 02:25:00,
2013-10-19 19:30:00,51.3,50.0,30.26,WSW,247,5.8,6.0,95,0.00,,,0.01,Rainwise IP-100,2013-10-20 02:30:00,
2013-10-19 19:35:00,51.3,50.0,30.26,WNW,292,3.7,9.0,95,0.00,,,0.01,Rainwise IP-100,2013-10-20 02:35:00,
2013-10-19 19:40:00,51.2,50.0,30.26,WNW,292,1.2,6.0,95,0.00,,,0.01,Rainwise IP-100,2013-10-20 02:40:00,
2013-10-19 19:45:00,51.0,50.0,30.26,WNW,292,4.2,5.0,95,0.00,,,0.01,Rainwise IP-100,2013-10-20 02:45:00,
2013-10-19 19:50:00,50.9,50.0,30.26,WSW,247,0.0,6.0,96,0.00,,,0.01,Rainwise IP-100,2013-10-20 02:50:00,
2013-10-19 19:55:00,50.8,50.0,30.26,North,360,2.1,13.0,96,0.00,,,0.01,Rainwise IP-100,2013-10-20 02:55:00,
2013-10-19 20:00:00,50.6,50.0,30.26,WNW,292,2.3,10.0,96,0.00,,,0.01,Rainwise IP-100,2013-10-20 03:00:00,
2013-10-19 20:05:00,50.5,50.0,30.27,ESE,112,4.0,11.0,96,0.00,,,0.01,Rainwise IP-100,2013-10-20 03:05:00,
2013-10-19 20:10:00,50.4,50.0,30.27,SSW,202,3.3,9.0,97,0.00,,,0.01,Rainwise IP-100,2013-10-20 03:10:00,
2013-10-19 20:15:00,50.3,49.0,30.27,WSW,247,5.1,11.0,97,0.00,,,0.01,Rainwise IP-100,2013-10-20 03:15:00,
2013-10-19 20:20:00,50.3,49.0,30.27,WSW,247,0.0,12.0,97,0.00,,,0.01,Rainwise IP-100,2013-10-20 03:20:00,
2013-10-19 20:25:00,50.2,49.0,30.27,SSW,202,2.6,10.0,98,0.00,,,0.01,Rainwise IP-100,2013-10-20 03:25:00,
2013-10-19 20:30:00,50.1,49.0,30.27,SSE,157,3.0,10.0,98,0.00,,,0.01,Rainwise IP-100,2013-10-20 03:30:00,
2013-10-19 20:35:00,50.0,49.0,30.27,South,180,2.3,6.0,98,0.00,,,0.01,Rainwise IP-100,2013-10-20 03:35:00,
2013-10-19 20:40:00,50.0,49.0,30.27,WNW,292,3.0,12.0,98,0.00,,,0.01,Rainwise IP-100,2013-10-20 03:40:00,
2013-10-19 20:45:00,50.0,49.0,30.27,South,180,2.8,10.0,98,0.00,,,0.01,Rainwise IP-100,2013-10-20 03:45:00,
2013-10-19 20:50:00,49.8,49.0,30.27,East,90,1.9,11.0,98,0.00,,,0.01,Rainwise IP-100,2013-10-20 03:50:00,
2013-10-19 20:55:00,49.6,49.0,30.27,SW,225,3.3,10.0,98,0.00,,,0.01,Rainwise IP-100,2013-10-20 03:55:00,
2013-10-19 21:00:00,49.5,49.0,30.27,West,270,7.0,9.0,98,0.00,,,0.01,Rainwise IP-100,2013-10-20 04:00:00,
2013-10-19 21:01:00,49.5,49.0,30.27,WNW,292,5.1,9.0,98,0.00,,,0.01,Rainwise IP-100,2013-10-20 04:01:00,
2013-10-19 21:06:00,49.5,50.0,30.27,East,90,1.4,11.0,99,0.00,,,0.01,Rainwise IP-100,2013-10-20 04:06:00,
2013-10-19 21:11:00,49.5,50.0,30.27,SW,225,2.1,8.0,99,0.00,,,0.01,Rainwise IP-100,2013-10-20 04:11:00,
2013-10-19 21:16:00,49.5,50.0,30.27,SSW,202,7.2,9.0,99,0.00,,,0.01,Rainwise IP-100,2013-10-20 04:16:00,
2013-10-19 21:21:00,49.5,50.0,30.27,SW,225,3.5,10.0,99,0.00,,,0.01,Rainwise IP-100,2013-10-20 04:21:00,
2013-10-19 21:26:00,49.3,49.0,30.27,WNW,292,2.6,7.0,99,0.00,,,0.01,Rainwise IP-100,2013-10-20 04:26:00,
2013-10-19 21:31:00,49.2,49.0,30.27,SSW,202,1.2,5.0,99,0.00,,,0.01,Rainwise IP-100,2013-10-20 04:31:00,
2013-10-19 21:36:00,49.2,49.0,30.27,WNW,292,4.2,7.0,99,0.00,,,0.01,Rainwise IP-100,2013-10-20 04:36:00,
2013-10-19 21:41:00,49.1,49.0,30.27,SSW,202,4.9,9.0,99,0.00,,,0.01,Rainwise IP-100,2013-10-20 04:41:00,
2013-10-19 21:46:00,49.2,49.0,30.27,SSE,157,4.4,9.0,99,0.00,,,0.01,Rainwise IP-100,2013-10-20 04:46:00,
2013-10-19 21:51:00,49.2,49.0,30.28,WSW,247,4.2,11.0,99,0.00,,,0.01,Rainwise IP-100,2013-10-20 04:51:00,
2013-10-19 21:56:00,49.2,49.0,30.28,SW,225,1.2,6.0,99,0.00,,,0.01,Rainwise IP-100,2013-10-20 04:56:00,
2013-10-19 22:01:00,49.2,49.0,30.28,SW,225,5.1,9.0,99,0.00,,,0.01,Rainwise IP-100,2013-10-20 05:01:00,
2013-10-19 22:06:00,49.3,49.0,30.28,SSE,157,2.6,8.0,99,0.00,,,0.01,Rainwise IP-100,2013-10-20 05:06:00,
2013-10-19 22:11:00,49.3,49.0,30.28,NNE,22,0.0,8.0,99,0.00,,,0.01,Rainwise IP-100,2013-10-20 05:11:00,
2013-10-19 22:16:00,49.3,49.0,30.28,WSW,247,3.3,10.0,99,0.00,,,0.01,Rainwise IP-100,2013-10-20 05:16:00,
2013-10-19 22:21:00,49.3,49.0,30.28,SSW,202,4.4,7.0,99,0.00,,,0.01,Rainwise IP-100,2013-10-20 05:21:00,
2013-10-19 22:26:00,49.2,49.0,30.28,SSW,202,3.5,6.0,99,0.00,,,0.01,Rainwise IP-100,2013-10-20 05:26:00,
2013-10-19 22:31:00,49.2,49.0,30.28,WSW,247,6.3,12.0,99,0.00,,,0.01,Rainwise IP-100,2013-10-20 05:31:00,
2013-10-19 22:36:00,49.2,49.0,30.28,SSE,157,1.6,12.0,100,0.00,,,0.01,Rainwise IP-100,2013-10-20 05:36:00,
2013-10-19 22:41:00,49.1,49.0,30.28,WNW,292,4.0,9.0,100,0.00,,,0.01,Rainwise IP-100,2013-10-20 05:41:00,
2013-10-19 22:46:00,49.1,49.0,30.28,South,180,2.8,13.0,100,0.00,,,0.01,Rainwise IP-100,2013-10-20 05:46:00,
2013-10-19 22:51:00,49.0,49.0,30.29,SW,225,7.0,13.0,100,0.00,,,0.01,Rainwise IP-100,2013-10-20 05:51:00,
2013-10-19 22:56:00,48.9,49.0,30.28,WSW,247,0.0,10.0,100,0.00,,,0.01,Rainwise IP-100,2013-10-20 05:56:00,
2013-10-19 23:01:00,48.7,49.0,30.28,NNW,337,1.2,9.0,100,0.00,,,0.01,Rainwise IP-100,2013-10-20 06:01:00,
2013-10-19 23:06:00,48.6,49.0,30.29,WSW,247,4.0,11.0,100,0.00,,,0.01,Rainwise IP-100,2013-10-20 06:06:00,
2013-10-19 23:11:00,48.6,49.0,30.28,WNW,292,3.0,11.0,100,0.00,,,0.01,Rainwise IP-100,2013-10-20 06:11:00,
2013-10-19 23:16:00,48.8,49.0,30.28,WNW,292,1.6,7.0,100,0.00,,,0.01,Rainwise IP-100,2013-10-20 06:16:00,
2013-10-19 23:21:00,49.0,49.0,30.28,SW,225,2.6,6.0,100,0.00,,,0.01,Rainwise IP-100,2013-10-20 06:21:00,
2013-10-19 23:26:00,49.1,49.0,30.28,SSE,157,2.3,6.0,100,0.00,,,0.01,Rainwise IP-100,2013-10-20 06:26:00,
2013-10-19 23:31:00,49.1,49.0,30.28,WNW,292,4.0,7.0,100,0.00,,,0.01,Rainwise IP-100,2013-10-20 06:31:00,
2013-10-19 23:36:00,49.0,49.0,30.28,WSW,247,6.5,9.0,100,0.00,,,0.01,Rainwise IP-100,2013-10-20 06:36:00,
2013-10-19 23:41:00,48.8,49.0,30.28,South,180,1.4,10.0,100,0.00,,,0.01,Rainwise IP-100,2013-10-20 06:41:00,
2013-10-19 23:46:00,48.7,49.0,30.28,SW,225,2.3,9.0,100,0.00,,,0.01,Rainwise IP-100,2013-10-20 06:46:00,
2013-10-19 23:51:00,48.8,49.0,30.27,South,180,4.4,7.0,100,0.00,,,0.01,Rainwise IP-100,2013-10-20 06:51:00,
2013-10-19 23:56:00,48.7,49.0,30.28,West,270,5.1,9.0,100,0.00,,,0.01,Rainwise IP-100,2013-10-20 06:56:00,